Terug naar catalogus

STARLINK-2426

ActiefCommunicatieVLEO
NORAD 47836·PAYLOAD·🇺🇸 United States

Gelanceerd Mar 11, 2021 vanaf Cape Canaveral Space Force Station

Loading…

Volgende Passages (komende 24 uur)

TLE

VersSource: CelesTrak SupGP

Epoch: Sep 14, 2026, 21:09 UTC

1 47836C 21018BB  26257.88173611  .00024055  00000+0  77271-3 0  2576
2 47836  53.1587  84.5457 0001207  96.8351  30.3185 15.31724356    12

Volg STARLINK-2426 in realtime met AllMySat

Download on the App Store